Notices

What's New in latest Release from April 7th, 2021:

- Updated Glossary, including Speed of Maximum Gust, and Total Hourly Precipitation

- Updated national and regional climate services offices contacts and prices information

- Addition of station inventory lists for 1981-2010, 1971-2000, and 1961-1990 Normals.

If you haven't already, please take our survey and provide feedback about our website: https://eccc.sondage-survey.ca/f/LanguageSelection.aspx?s=442ca660-fcf1-47c0-95a9-59707d6fd709

Hourly Data Report for November 19, 2020

MUSKOKA
ONTARIO
Current Station Operator: NAVCAN

44°58'29.000" N
79°18'12.000" W
281.90 m
6115529
71532
YQA

Download Data

Hourly Data (November 2020)
Hourly Data Report for November 19, 2020
TIME
LST
Temp Definition
°C
Dew Point Definition
°C
Rel Hum Definition
%
Precip. Amount Definition
mm

Wind Dir Definition
10's deg

Wind Spd Definition
km/h
Visibility Definition
km
Stn Press Definition
kPa
Hmdx Definition


Wind Chill Definition


Weather Definition


00:00 -2.9 -4.8 87 0.0 14 13 16.1 99.22   -8 LegendNANA
01:00 -2.4 -4.1 88 0.0 14 18 16.1 99.11   -8 LegendNANA
02:00 -1.7 -3.6 87 0.0 14 21 16.1 98.98   -8 LegendNANA
03:00 -1.2 -3.1 87 0.0 14 18 16.1 98.85   -6 LegendNANA
04:00 -0.3 -2.2 87 0.0 15 21 16.1 98.74   -6 LegendNANA
05:00 0.1 -2.0 86 0.0 15 17 16.1 98.66     LegendNANA
06:00 1.8 -1.6 78 0.0 16 17 16.1 98.56     LegendNANA
07:00 2.6 -2.2 71 0.0 17 21 16.1 98.43     LegendNANA
08:00 2.6 -2.5 69 0.0 18 18 16.1 98.38     LegendNANA
09:00 3.4 -2.4 66 0.0 18 18 16.1 98.29     LegendNANA
10:00 4.4 -2.5 61 0.0 19 22 16.1 98.24     LegendNANA
11:00 5.5 -1.9 59 0.0 20 17 16.1 98.19     LegendNANA
12:00 7.6 -1.6 52 0.0 21 17 16.1 98.12     LegendNANA
13:00 8.1 -1.6 50 0.0 19 18 16.1 98.06     LegendNANA
14:00 9.8 -0.8 48 0.0 20 22 16.1 98.01     LegendNANA
15:00 9.3 -0.6 50 0.0 20 15 16.1 97.98     LegendNANA
16:00 8.2 0.0 56 0.0 18 9 16.1 98.00     LegendNANA
17:00 4.5 -0.7 69 0.0 16 5 16.1 98.00     LegendNANA
18:00 5.2 0.3 71 0.0 18 13 16.1 98.00     LegendNANA
19:00 6.1 0.2 66 0.0 18 13 16.1 98.05     LegendNANA
20:00 6.5 0.6 66 0.0 18 13 16.1 98.06     LegendNANA
21:00 7.2 0.9 64 0.0 18 13 16.1 98.08     LegendNANA
22:00 7.5 1.2 64 0.0 18 13 16.1 98.06     LegendNANA
23:00 8.0 1.4 63 0.0 19 13 16.1 98.07     LegendNANA

Notes on Data Quality.

Legend

  • E = Estimated
  • M = Missing
  • NA = Not Available*
  • [empty] = Indicates an unobserved value
Date modified: